Weather History for Grand Forks AFB, ND

Change the Weather History Date:

Monday, September 9, 2013

  Actual Average Record
Temperature  
Mean Temperature 66 °F -  
Max Temperature 70 °F 72 °F 87 °F (2000)
Min Temperature 61 °F 49 °F 31 °F (2006)
Growing Degree Days 16 (Base 50)    
Moisture  
Dew Point 64 °F    
Average Humidity 97    
Maximum Humidity 100    
Minimum Humidity 83    
Precipitation  
Precipitation 0.00 in - - ()
Sea Level Pressure  
Sea Level Pressure 29.73 in    
Wind  
Wind Speed 7 mph (NE)    
Max Wind Speed 14 mph    
Max Gust Speed -    
Visibility 8 miles    
Events Rain    
Averages and records for this station are not official NWS values.
T = Trace of Precipitation, MM = Missing Value Source: NWS Daily Summary

Daily Weather History Graph

Daily Weather History Graph

Search for Another Location

Airport:

Trip Planner

Search our weather history database for the weather conditions in past years. The results will help you decide how hot, cold, wet, or windy it might be!

Date:

Astronomy

Sep. 09, 2013 Rise Set
Actual Time 6:58 AM CDT 7:53 PM CDT
Civil Twilight 6:27 AM CDT 8:25 PM CDT
Nautical Twilight 5:49 AM CDT 9:02 PM CDT
Astronomical Twilight 5:09 AM CDT 9:42 PM CDT
Moon 11:45 AM CDT (9/9) 9:46 PM CDT (9/9)
Length of Visible Light 13h 57m
Length of Day
12h 54m
Waxing Crescent, 19% of the Moon is Illuminated
Sep 9
Waxing Crescent
Sep 12
First Quarter
Sep 19
Full
Sep 26
Last Quarter
Oct 4
New

Hourly Weather History & Observations

Time (CDT) Temp. Dew Point Humidity Pressure Visibility Wind Dir Wind Speed Gust Speed Precip Events Conditions
12:58 AM 63.9 °F 63.5 °F 99% 29.84 in 10.0 mi South 5.8 mph - N/A   Overcast
1:03 AM 64.4 °F 64.4 °F 100% 29.82 in 10.0 mi SSE 5.8 mph - N/A   Overcast
1:18 AM 64.4 °F 64.4 °F 100% 29.82 in 10.0 mi South 4.6 mph - N/A   Overcast
1:28 AM 64.4 °F 64.4 °F 100% 29.82 in 10.0 mi South 5.8 mph - N/A   Overcast
1:33 AM 64.4 °F 64.4 °F 100% 29.82 in 10.0 mi South 8.1 mph - N/A   Overcast
1:48 AM 64.4 °F 64.4 °F 100% 29.81 in 10.0 mi SSE 8.1 mph - N/A   Overcast
1:58 AM 64.0 °F 63.9 °F 99% 29.81 in 10.0 mi SSE 6.9 mph - N/A   Overcast
2:08 AM 64.4 °F 64.4 °F 100% 29.80 in 10.0 mi SSE 8.1 mph - N/A   Overcast
2:18 AM 64.4 °F 64.4 °F 100% 29.80 in 9.0 mi SE 5.8 mph - N/A   Overcast
2:23 AM 64.4 °F 64.4 °F 100% 29.80 in 9.0 mi SSE 5.8 mph - N/A   Overcast
2:58 AM 63.9 °F 63.7 °F 99% 29.78 in 6.0 mi South 4.6 mph - N/A   Overcast
3:03 AM 64.4 °F 64.4 °F 100% 29.76 in 6.0 mi SE 3.5 mph - N/A   Overcast
3:08 AM 64.4 °F 64.4 °F 100% 29.74 in 6.0 mi ESE 4.6 mph - N/A   Overcast
3:23 AM 64.4 °F 64.4 °F 100% 29.75 in 4.0 mi SE 4.6 mph - N/A   Overcast
3:58 AM 63.7 °F 63.7 °F 100% 29.75 in 5.0 mi SE 8.1 mph - N/A   Overcast
4:03 AM 64.4 °F 64.4 °F 100% 29.74 in 6.0 mi SE 9.2 mph - N/A   Overcast
4:13 AM 64.4 °F 64.4 °F 100% 29.75 in 5.0 mi SSE 9.2 mph - N/A   Overcast
4:18 AM 64.4 °F 64.4 °F 100% 29.75 in 2.5 mi SSE 10.4 mph - N/A   Overcast
4:23 AM 64.4 °F 64.4 °F 100% 29.76 in 1.5 mi SSE 9.2 mph - N/A   Overcast
4:25 AM 64.4 °F 64.4 °F 100% 29.76 in 1.2 mi SSE 10.4 mph - N/A   Light Drizzle
4:35 AM 64.4 °F 64.4 °F 100% 29.76 in 1.0 mi SSE 8.1 mph - N/A Rain Light Rain
4:45 AM 62.6 °F 62.6 °F 100% 29.75 in 1.2 mi ESE 8.1 mph - N/A Rain Light Rain
4:50 AM 62.6 °F 62.6 °F 100% 29.75 in 1.8 mi SE 8.1 mph - N/A Rain Light Rain
4:55 AM 62.6 °F 62.6 °F 100% 29.76 in 2.0 mi SSE 9.2 mph - N/A Rain Light Rain
4:58 AM 62.6 °F 62.6 °F 100% 29.78 in 2.5 mi SSE 9.2 mph - 0.00 in Rain Light Rain
5:03 AM 62.6 °F 62.6 °F 100% 29.76 in 5.0 mi SSE 10.4 mph - N/A Rain Light Rain
5:08 AM 62.6 °F 62.6 °F 100% 29.76 in 6.0 mi SSE 9.2 mph - N/A Rain Light Rain
5:38 AM 62.6 °F 62.6 °F 100% 29.74 in 5.0 mi SE 8.1 mph - N/A Rain Light Rain
5:58 AM 63.0 °F 63.0 °F 100% 29.72 in 4.0 mi East 6.9 mph - 0.00 in Rain Light Rain
6:23 AM 62.6 °F 62.6 °F 100% 29.69 in 5.0 mi East 5.8 mph - N/A Rain Light Rain
6:53 AM 62.6 °F 62.6 °F 100% 29.66 in 5.0 mi East 9.2 mph - N/A Rain Light Rain
6:58 AM 63.0 °F 63.0 °F 100% 29.66 in 5.0 mi East 11.5 mph - 0.00 in Rain Light Rain
7:08 AM 62.6 °F 62.6 °F 100% 29.63 in 6.0 mi East 12.7 mph - N/A Rain Light Rain
7:23 AM 62.6 °F 62.6 °F 100% 29.62 in 8.0 mi East 12.7 mph - N/A Rain Light Rain
7:52 AM 62.6 °F 62.6 °F 100% 29.66 in 10.0 mi ESE 5.8 mph - N/A   Overcast
7:57 AM 62.6 °F 62.6 °F 100% 29.65 in 10.0 mi ESE 5.8 mph - N/A   Overcast
7:58 AM 62.6 °F 62.6 °F 100% 29.66 in 10.0 mi ESE 6.9 mph - 0.00 in   Overcast
8:08 AM 62.6 °F 62.6 °F 100% 29.66 in 10.0 mi SE 4.6 mph - N/A   Overcast
8:13 AM 62.6 °F 62.6 °F 100% 29.66 in 10.0 mi East 4.6 mph - N/A   Overcast
8:18 AM 62.6 °F 62.6 °F 100% 29.67 in 10.0 mi East 3.5 mph - N/A   Overcast
8:33 AM 64.4 °F 64.4 °F 100% 29.67 in 10.0 mi NE 4.6 mph - N/A   Overcast
8:43 AM 64.4 °F 64.4 °F 100% 29.68 in 9.0 mi North 4.6 mph - N/A   Overcast
8:58 AM 63.5 °F 63.5 °F 100% 29.70 in 10.0 mi North 5.8 mph - N/A   Overcast
9:08 AM 64.4 °F 64.4 °F 100% 29.68 in 7.0 mi NNE 4.6 mph - N/A   Overcast
9:13 AM 64.4 °F 64.4 °F 100% 29.68 in 5.0 mi NNE 5.8 mph - N/A   Overcast
9:28 AM 64.4 °F 64.4 °F 100% 29.68 in 5.0 mi NE 4.6 mph - N/A   Overcast
9:33 AM 64.4 °F 64.4 °F 100% 29.67 in 6.0 mi NE 4.6 mph - N/A   Overcast
9:58 AM 64.6 °F 64.6 °F 100% 29.70 in 10.0 mi ENE 2.3 mph - N/A   Overcast
10:18 AM 64.4 °F 64.4 °F 100% 29.68 in 10.0 mi North 3.5 mph - N/A   Overcast
10:23 AM 64.4 °F 64.4 °F 100% 29.69 in 10.0 mi ENE 2.3 mph - N/A   Overcast
10:33 AM 64.4 °F 64.4 °F 100% 29.69 in 10.0 mi Calm Calm - N/A   Overcast
10:48 AM 66.2 °F 66.2 °F 100% 29.69 in 10.0 mi North 1.2 mph - N/A   Overcast
10:58 AM 65.7 °F 65.3 °F 99% 29.69 in 10.0 mi North 5.8 mph - N/A   Overcast
11:08 AM 66.2 °F 64.4 °F 94% 29.69 in 10.0 mi Variable 3.5 mph - N/A   Overcast
11:28 AM 66.2 °F 66.2 °F 100% 29.69 in 10.0 mi NNW 4.6 mph - N/A   Overcast
11:58 AM 68.5 °F 66.6 °F 93% 29.68 in 10.0 mi North 10.4 mph - N/A   Overcast
12:23 PM 69.8 °F 66.2 °F 88% 29.67 in 10.0 mi North 11.5 mph - N/A   Mostly Cloudy
12:48 PM - - N/A% - - North 8.1 mph - N/A   Unknown
12:49 PM 68.0 °F 66.2 °F 94% 29.67 in - North 8.1 mph - N/A   Overcast
12:54 PM 68.0 °F 66.2 °F 94% 29.67 in - North 9.2 mph - N/A   Overcast
12:58 PM 68.4 °F 65.7 °F 91% 29.68 in 10.0 mi North 8.1 mph - N/A   Overcast
1:58 PM 67.5 °F 64.9 °F 92% 29.70 in 10.0 mi North 11.5 mph - N/A   Overcast
2:58 PM 67.5 °F 64.2 °F 89% 29.70 in 10.0 mi NNE 13.8 mph - N/A   Overcast
3:13 PM 68.0 °F 64.4 °F 88% 29.69 in 10.0 mi NNE 9.2 mph - N/A   Overcast
3:33 PM 68.0 °F 64.4 °F 88% 29.68 in 10.0 mi NNE 9.2 mph - N/A   Overcast
3:50 PM 68.0 °F 64.4 °F 88% 29.69 in 10.0 mi North 9.2 mph - N/A   Overcast
3:55 PM 68.0 °F 64.4 °F 88% 29.68 in 10.0 mi NNE 10.4 mph - N/A   Overcast
3:58 PM 67.8 °F 64.9 °F 90% 29.69 in 10.0 mi NNE 12.7 mph - N/A   Overcast
4:00 PM 68.0 °F 64.4 °F 88% 29.69 in 10.0 mi NNE 11.5 mph - N/A   Overcast
4:10 PM 69.8 °F 64.4 °F 83% 29.69 in 10.0 mi NNE 10.4 mph - N/A   Overcast
4:56 PM 68.0 °F 64.4 °F 88% 29.70 in 10.0 mi North 9.2 mph - N/A Rain Light Rain
4:58 PM 68.0 °F 64.4 °F 88% 29.71 in 10.0 mi North 9.2 mph - N/A Rain Light Rain
5:12 PM 66.2 °F 66.2 °F 100% 29.71 in 10.0 mi North 12.7 mph - N/A   Overcast
5:13 PM 66.2 °F 66.2 °F 100% 29.71 in 10.0 mi North 11.5 mph - N/A   Overcast
5:43 PM 66.2 °F 64.4 °F 94% 29.72 in 10.0 mi North 12.7 mph - N/A   Overcast
5:45 PM 66.2 °F 64.4 °F 94% 29.72 in 10.0 mi North 11.5 mph - N/A   Overcast
5:55 PM 66.2 °F 64.4 °F 94% 29.73 in 10.0 mi NNW 12.7 mph - N/A   Overcast
5:58 PM 66.4 °F 64.6 °F 94% 29.74 in 10.0 mi North 12.7 mph - 0.00 in   Overcast
5:59 PM 66.2 °F 64.4 °F 94% 29.73 in 10.0 mi North 11.5 mph - N/A   Overcast
6:14 PM 66.2 °F 64.4 °F 94% 29.73 in 10.0 mi North 11.5 mph - N/A   Overcast
6:29 PM 66.2 °F 64.4 °F 94% 29.73 in 10.0 mi NNW 10.4 mph - N/A   Overcast
6:49 PM 66.2 °F 64.4 °F 94% 29.74 in 10.0 mi North 10.4 mph - N/A   Overcast
6:58 PM 65.7 °F 64.2 °F 95% 29.75 in 10.0 mi North 8.1 mph - N/A   Overcast
7:08 PM 64.4 °F 64.4 °F 100% 29.75 in 10.0 mi North 6.9 mph - N/A   Overcast
7:13 PM 64.4 °F 64.4 °F 100% 29.75 in 10.0 mi North 6.9 mph - N/A   Overcast
7:35 PM 64.4 °F 64.4 °F 100% 29.75 in 10.0 mi North 5.8 mph - N/A   Overcast
7:58 PM 64.9 °F 63.9 °F 96% 29.76 in 10.0 mi North 3.5 mph - N/A   Overcast
8:38 PM 62.6 °F 62.6 °F 100% 29.76 in 10.0 mi NNW 5.8 mph - N/A   Overcast
8:58 PM 63.7 °F 63.3 °F 99% 29.79 in 10.0 mi North 4.6 mph - N/A   Overcast
9:33 PM 64.4 °F 62.6 °F 94% 29.78 in 10.0 mi NNE 5.8 mph - N/A   Overcast
9:58 PM 64.0 °F 63.0 °F 96% 29.79 in 10.0 mi NNW 3.5 mph - N/A   Overcast
10:58 PM 63.9 °F 63.5 °F 99% 29.80 in 10.0 mi NW 2.3 mph - N/A   Overcast
11:23 PM 62.6 °F 62.6 °F 100% 29.79 in 10.0 mi Calm Calm - N/A   Mostly Cloudy
11:58 PM 61.7 °F 61.3 °F 99% 29.80 in 10.0 mi SW 2.3 mph - N/A   Mostly Cloudy